Location: Ermatingen
(47.6706°N, 9.0857°E)
Time: 07:49:28
(UTC+00:00)

Cosmos 1428 Rocket - Pass Details

Date: 29 November 2021
Orbit: 949 x 987 km, 82.9° (Epoch: 26 January)

Event Time Altitude Azimuth Distance (km) Brightness Sun altitude
Rises 18:26:50 0° 344° (NNW) 3,633 7.7 -28.2°
Reaches altitude 10° 18:29:31 10° 336° (NNW) 2,685 7.0 -28.7°
Maximum altitude 18:34:58 35° 273° (W) 1,496 5.9 -29.6°
Drops below altitude 10° 18:40:25 10° 210° (SSW) 2,681 7.1 -30.5°
Sets 18:43:07 0° 201° (SSW) 3,627 7.7 -30.9°
